CST,Max TemperatureF,Mean TemperatureF,Min TemperatureF,Max Dew PointF,MeanDew PointF,Min DewpointF,Max Humidity, Mean Humidity, Min Humidity, Max Sea Level PressureIn, Mean Sea Level PressureIn, Min Sea Level PressureIn, Max VisibilityMiles, Mean VisibilityMiles, Min VisibilityMiles, Max Wind SpeedMPH, Mean Wind SpeedMPH, Max Gust SpeedMPH,PrecipitationIn, CloudCover, Events, WindDirDegrees
2013-2-1,21,7,-7,16,0,-15,93,73,57,30.31,30.12,29.94,10,10,7,20,9,24,0.00,5,,217
2013-2-2,33,20,8,34,16,7,100,86,63,30.14,30.05,29.94,10,8,0,34,10,40,0.02,7,Snow,289
2013-2-3,39,24,8,32,20,7,100,85,69,30.12,29.96,29.76,10,10,3,23,13,30,0.00,4,Rain-Snow,225
2013-2-4,23,18,12,23,15,7,100,86,73,30.02,29.90,29.77,10,9,6,22,13,28,0.00,7,Rain-Snow,292
2013-2-5,39,31,23,32,27,23,100,92,70,30.05,29.88,29.71,10,9,4,20,11,25,0.00,3,,289
2013-2-6,42,32,21,36,30,21,100,89,66,30.04,29.91,29.81,10,8,4,23,10,32,0.00,4,,166
2013-2-7,33,28,23,34,27,23,100,99,93,30.24,30.08,29.90,10,5,2,20,13,22,0.00,8,,354
2013-2-8,33,27,21,27,23,19,100,92,65,30.30,30.21,30.08,10,9,7,26,10,28,0.00,6,,138
2013-2-9,46,36,26,34,31,27,100,88,57,30.10,29.90,29.72,10,6,2,26,20,33,0.00,6,,155
2013-2-10,39,34,28,39,33,25,100,98,86,29.71,29.39,29.18,10,4,0,32,18,41,0.21,8,Fog-Rain-Snow,130
2013-2-11,28,26,23,25,21,18,93,85,80,30.06,29.93,29.58,10,9,3,31,23,44,0.00,8,Rain,298
2013-2-12,37,28,19,30,23,18,93,85,70,30.06,29.93,29.84,10,10,10,17,10,21,0.00,1,,249
2013-2-13,42,33,24,36,30,25,100,88,70,29.84,29.72,29.62,10,10,10,17,8,24,0.00,4,,257
2013-2-14,35,24,14,34,23,3,100,83,58,30.24,29.96,29.69,10,10,7,25,17,33,0.00,6,Rain-Snow,322
2013-2-15,24,17,10,16,10,7,92,78,63,30.32,30.29,30.24,10,10,9,16,9,18,0.00,4,,320
2013-2-16,35,22,8,27,17,7,100,85,56,30.26,30.09,29.99,10,10,8,12,6,16,0.00,3,,188
2013-2-17,48,34,21,32,27,19,100,78,50,29.99,29.75,29.53,10,10,9,28,12,32,0.00,1,,157
2013-2-18,37,22,8,34,19,1,100,80,59,29.98,29.74,29.54,10,9,2,34,19,45,0.00,6,Rain-Snow,314
2013-2-19,12,6,0,3,-3,-8,79,66,52,30.37,30.20,29.98,10,10,4,28,22,39,0.00,3,Rain-Snow,322
2013-2-20,23,10,-4,9,-1,-9,79,62,39,30.37,30.31,30.24,10,10,10,16,9,20,0.00,2,,82
2013-2-21,24,18,12,18,11,9,100,74,50,30.28,30.11,29.92,10,8,1,23,14,31,0.00,6,Rain-Snow,78
2013-2-22,23,16,10,19,16,10,100,90,80,29.93,29.90,29.85,10,6,1,17,14,24,0.00,8,Rain-Snow,333
2013-2-23,26,13,0,21,10,-6,100,89,74,29.92,29.86,29.81,10,7,0,10,5,,0.00,3,Fog-Snow,118
2013-2-24,28,19,10,27,20,9,100,99,92,30.06,29.97,29.87,6,3,0,10,6,,0.00,6,Fog-Rain,83
2013-2-25,28,24,21,28,25,21,100,100,93,30.08,30.03,29.96,7,2,0,13,4,15,0.00,8,Fog,7
2013-2-26,30,24,19,28,25,19,100,97,86,29.98,29.90,29.83,5,3,0,17,12,23,0.00,6,Fog,22
2013-2-27,37,28,19,27,22,18,100,84,65,30.06,29.95,29.88,10,8,4,24,16,33,0.00,1,,332
2013-2-28,28,24,21,23,22,21,100,88,74,30.20,30.15,30.07,10,9,5,21,14,26,0.00,8,Rain,338